Home > Weather > New Amsterdam > Past weeks

Flag for Guyana Weather for the Past 2 Weeks in New Amsterdam, Guyana

Now
77 °F

Passing clouds.


Feels Like: 78 °F
Forecast: N/A
Wind: 5 mph from Southeast

Location: Georgetown/Cheddi Jagan International Airport

Current Time: Apr 29, 2016 at 7:40:40 PM

Latest Report: Apr 29, 2016 at 7:00 PM


Visibility: N/A

Pressure: 29.86 "Hg

Humidity: 94%

Dew Point: 75 °F

Location of New AmsterdamLocation

Historic Weather in New Amsterdam — Graph

°F

New Amsterdam Temperature Yesterday

Maximum temperature yesterday: 84 °F (at 12:00 PM)
Minimum temperature yesterday: 77 °F (at 4:00 AM)
Average temperature yesterday: 78 °F

High & Low Weather Summary for the Past Weeks

 TemperatureHumidityPressure
High91 °F (Apr 15, 1:00 PM)100% (Apr 15, 4:00 AM)29.95 "Hg (Apr 15, 4:00 AM)
Low73 °F (Apr 15, 3:00 AM)52% (Apr 15, 1:00 PM)29.74 "Hg (Apr 25, 4:00 PM)
Average80 °F87%29.86 "Hg
* Reported Apr 14 6:00 PM — Apr 29 6:00 PM, New Amsterdam, Weather by CustomWeather, © 2016

Note: Actual official high and low records may vary slightly from our data, if they occured in-between our weather recording intervals... More about our weather records

Advertising

New Amsterdam Weather History for the Previous 24 Hours

Scroll right to see more
 ConditionsComfort  
Time TempWeatherWind HumidityBarometerVisibility
6:00 PM
Fri, Apr 29
79 °FPassing clouds.7 mph89%29.83 "HgN/A
5:00 PM81 °FPartly sunny.9 mph89%29.83 "HgN/A
4:00 PM81 °FBroken clouds.9 mph89%29.80 "HgN/A
3:00 PM81 °FBroken clouds.7 mph89%29.80 "HgN/A
2:00 PM79 °FLight rain. More clouds than sun.7 mph89%29.83 "HgN/A
1:00 PM77 °FLight rain. Cloudy.9 mph100%29.83 "HgN/A
12:00 PM77 °FLight rain. Cloudy.12 mph100%29.89 "Hg6 mi
11:00 AM79 °FLight rain. Cloudy.7 mph94%29.92 "Hg5 mi
10:00 AM81 °FLight rain. Cloudy.5 mph89%29.92 "HgN/A
9:00 AM79 °FCloudy.2 mph94%29.92 "HgN/A
8:00 AM75 °FHeavy rain. Broken clouds.5 mph100%29.92 "Hg6 mi
7:00 AM75 °FLots of rain. Broken clouds.7 mph100%29.92 "Hg6 mi
6:00 AM75 °FBroken clouds.7 mph94%29.89 "HgN/A
5:00 AM75 °FPartly cloudy.5 mph100%29.86 "HgN/A
4:00 AM75 °FPartly cloudy.5 mph100%29.86 "HgN/A
3:00 AM75 °FPartly cloudy.5 mph100%29.86 "Hg6 mi
2:00 AM75 °FHeavy rain. Mostly cloudy.5 mph100%29.86 "Hg4 mi
1:00 AM75 °FHeavy rain. Mostly cloudy.5 mph100%29.86 "Hg4 mi
12:00 AM75 °FHeavy rain. Mostly cloudy.5 mph100%29.89 "Hg4 mi
11:00 PM
Thu, Apr 28
77 °FHeavy rain. Mostly cloudy.7 mph94%29.92 "Hg4 mi
10:00 PM77 °FHeavy rain. Mostly cloudy.7 mph94%29.92 "Hg4 mi
9:00 PM77 °FHeavy rain. Passing clouds.7 mph94%29.92 "Hg4 mi
8:00 PM77 °FLots of rain. Passing clouds.16 mph100%29.92 "Hg5 mi
7:00 PM79 °FPassing clouds.5 mph94%29.89 "HgN/A
Weather by CustomWeather, © 2016

See weather overviewHow to use our weather pages